This is the latest recevied weather packets stored in our database for station/object M0UPS-13. If no packets are shown the sender has not sent any weather packets the latest 10 day(s).
| Time | Temp. | Humidity | Pressure | Rain* | Wind** | Luminosity | Snow |
|---|---|---|---|---|---|---|---|
| 1777797002 | 15° C | 74% | 1010.4 hPa | 0 mm | - | 293 W/m² | - |
| 1777796702 | 14.44° C | 76% | 1010.3 hPa | 0 mm | - | 288 W/m² | - |
| 1777796402 | 14.44° C | 76% | 1010.1 hPa | 0 mm | - | 244 W/m² | - |
| 1777796102 | 15° C | 75% | 1010.4 hPa | 0 mm | - | 163 W/m² | - |
| 1777795802 | 14.44° C | 77% | 1010.1 hPa | 0 mm | - | 164 W/m² | - |
| 1777795502 | 14.44° C | 75% | 1010.1 hPa | 0 mm | - | 162 W/m² | - |
| 1777795202 | 14.44° C | 76% | 1010.2 hPa | 0 mm | - | 453 W/m² | - |
| 1777794902 | 14.44° C | 76% | 1010.2 hPa | 0 mm | - | 453 W/m² | - |
| 1777794602 | 14.44° C | 76% | 1010.1 hPa | 0 mm | - | 169 W/m² | - |
| 1777794302 | 15° C | 75% | 1010.1 hPa | 0 mm | - | 215 W/m² | - |
| 1777794003 | 15° C | 73% | 1010.1 hPa | 0 mm | - | 193 W/m² | - |
| 1777793702 | 15.56° C | 72% | 1010.1 hPa | 0 mm | - | 364 W/m² | - |
| 1777793402 | 15° C | 76% | 1010.2 hPa | 0 mm | - | 334 W/m² | - |
| 1777793102 | 15° C | 75% | 1010 hPa | 0 mm | - | 312 W/m² | - |
| 1777792802 | 14.44° C | 77% | 1010 hPa | 0 mm | - | 303 W/m² | - |
| 1777792503 | 14.44° C | 78% | 1010.1 hPa | 0 mm | - | 291 W/m² | - |
| 1777792202 | 13.33° C | 82% | 1010.2 hPa | 0 mm | - | 304 W/m² | - |
| 1777791902 | 13.33° C | 81% | 1010.1 hPa | 0 mm | - | 121 W/m² | - |
| 1777791602 | 13.33° C | 82% | 1010.1 hPa | 0 mm | - | 118 W/m² | - |
| 1777791302 | 13.89° C | 82% | 1010 hPa | 0 mm | - | 120 W/m² | - |
| 1777791002 | 13.89° C | 81% | 1010.2 hPa | 0 mm | - | 104 W/m² | - |
| 1777790702 | 13.89° C | 83% | 1010 hPa | 0 mm | - | 185 W/m² | - |
| 1777790403 | 13.33° C | 85% | 1009.9 hPa | 0 mm | - | 124 W/m² | - |
| 1777790102 | 13.33° C | 86% | 1009.9 hPa | 0 mm | - | 158 W/m² | - |
| 1777789802 | 12.78° C | 89% | 1010 hPa | 0 mm | - | 138 W/m² | - |
* Rain latest hour (hover to see other rain measurements)
** Current wind speed in m/s (hover to see current wind gust speed)